Location: *
(6.0000°S, 32.3997°W)
Time: 19:50:15
(UTC+00:00)

CZ-4 R/B - Pass Details

Date: 01 April 2020
Orbit: 532 x 598 km, 97.8° (Epoch: 27 May)

Event Time Altitude Azimuth Distance (km) Brightness Sun altitude
Rises 20:52:31 0° 163° (SSE) 2,762 4.7 -10.3°
Reaches altitude 10° 20:54:43 10° 159° (SSE) 1,850 3.8 -10.8°
Maximum altitude 20:58:39 59° 79° (E) 641 1.3 -11.8°
Drops below altitude 10° 21:02:29 10° 359° (N) 1,801 4.0 -12.7°
Sets 21:04:35 0° 355° (N) 2,680 4.9 -13.3°
